Miscellaneous Local Product
Issued by NWS Hastings, NE

Home | Current Version | Previous Version | Text Only | Print | Product List | Glossary Off
Versions: 1 2 3 4 5 6 7 8 9 10 11 12 13 14 15 16 17 18 19 20 21 22 23 24 25 26 27 28 29 30 31 32 33 34 35 36 37 38 39 40 41 42 43 44 45 46 47 48 49 50

000
AXUS43 KGID 042002
MISGRI

GID CWA HOURLY WEATHER ROUNDUP
NATIONAL WEATHER SERVICE HASTINGS NE
300 PM CDT SAT JUL 04 2015

NOTE: "FAIR" INDICATES FEW OR NO CLOUDS BELOW 12,000 FEET WITH NO
SIGNIFICANT WEATHER AND/OR OBSTRUCTIONS TO VISIBILITY.

...SOUTH CENTRAL NEBRASKA...

CITY           SKY/WX    TMP DP  RH WIND       PRES   REMARKS
GRAND ISLAND   MOSUNNY   83  66  56 S13       29.96F
HASTINGS       MOSUNNY   83  64  52 S10G21    29.96F
KEARNEY        SUNNY     84  66  54 S16G22    29.95F
ORD            SUNNY     86  64  47 S12G24    29.92F
YORK           MOSUNNY   79  64  61 S13       29.97F
AURORA         MOSUNNY   81  64  56 S14G21    29.97S
LEXINGTON      MOSUNNY   87  65  48 S16G22    29.94F
HOLDREGE       SUNNY     83  62  47 S14G23    29.95F
HEBRON         MOSUNNY   82  60  47 SE10      29.97F

...NEBRASKA PANHANDLE...

CITY           SKY/WX    TMP DP  RH WIND       PRES   REMARKS
CHADRON        SUNNY     91  65  41 SE6       29.84F HX  93
ALLIANCE       SUNNY     89  63  41 S14G22    29.90F HX  90
SCOTTSBLUFF    SUNNY     93  58  30 E9        29.88F HX  92
SIDNEY         SUNNY     91  58  32 S15G24    29.94F HX  90

...WESTERN AND NORTH CENTRAL NEBRASKA...

CITY           SKY/WX    TMP DP  RH WIND       PRES   REMARKS
VALENTINE      SUNNY     89  64  43 S16       29.86F HX  90
AINSWORTH      SUNNY     88  64  45 S17       29.89F
ONEILL         MOSUNNY   83  66  54 S16G22    29.92F
BROKEN BOW     MOSUNNY   85  66  53 S17G26    29.94S
IMPERIAL       SUNNY     94  58  29 S17G25    29.90F HX  93
NORTH PLATTE   MOSUNNY   89  64  43 S15G24    29.91F HX  90
MCCOOK         MOSUNNY   94  59  31 S18G24    29.90F HX  93

...EASTERN NEBRASKA...

CITY           SKY/WX    TMP DP  RH WIND       PRES   REMARKS
NORFOLK        PTSUNNY   80  65  59 S14       29.95F
SO SIOUX CITY  PTSUNNY   81  64  56 S13       29.95F
TEKAMAH        PTSUNNY   83  63  50 S10G16    29.96S
COLUMBUS       PTSUNNY   79  63  57 S9        29.98S
ALBION         MOSUNNY   81  64  56 S15       29.96S
OMAHA EPPLEY   PTSUNNY   82  59  45 S10G18    29.97F
OFFUTT AFB     PTSUNNY   80  62  54 S9        29.97F
MILLARD        PTSUNNY   79  63  57 S7        29.97F
LINCOLN        PTSUNNY   81  65  58 S10       29.97F
NEBRASKA CITY  PTSUNNY   79  54  40 S10       29.99F
BEATRICE       PTSUNNY   81  64  56 S8        29.98S
FALLS CITY     PTSUNNY   82  60  47 S10       29.98F

...NORTHERN KANSAS...

CITY           SKY/WX    TMP DP  RH WIND       PRES   REMARKS
GOODLAND       SUNNY     91  59  33 S15G25    29.93F HX  90
NORTON         PTCLDY    91  55  29 SE15G23   29.92F
PHILLIPSBURG   SUNNY     91  63  38 SE13G22   29.93F HX  92
SMITH CENTER   SUNNY     88  61  40 SE18      29.94F
HAYS           MOSUNNY   88  64  45 S18       29.94F
RUSSELL        SUNNY     87  65  47 S17G24    29.94F
CONCORDIA      SUNNY     84  62  47 S13       29.97S
SALINA         MOSUNNY   90  60  36 SE12      29.95F
TOPEKA         PTSUNNY   82  63  52 SE10      29.98F



USA.gov is the U.S. government's official web portal to all federal, state and local government web resources and services.